sat.trackr.live / text

‹ back to catalog

KUIPER-00534

NORAD 69606 · 2026-140Q

PAYLOAD ACTIVE UNKNOWN

§ Identity

Operator
Country
US
Launch date
2026-06-17
Launch site
FRGUI
Launch vehicle
Mass (kg)
RCS (m²)

External: N2YO · Heavens-Above · Gunter

§ Orbital elements

Epoch: 2026-09-20T04:00:03.000096Z

Period
94.14 min
Inclination
51.8811°
Eccentricity
0.0013035
Mean motion
15.29609695 rev/d
Perigee alt
468.0 km
Apogee alt
485.9 km
Semi-major
6,855.1 km
B*
-9.1734e-5
RAAN
300.5473°
Arg perigee
131.2397°
Mean anomaly
122.0241°
Rev number
498

§ Raw data

KUIPER-005341 69606U 26140Q   26263.16670139 -.00003042  00000+0 -91734-4 0  99902 69606  51.8811 300.5473 0013035 131.2397 122.0241 15.29609695  4988

JSON: /api/v1/satellites/69606 · /tle

For live sub-satellite position, see the globe view (requires WebGL).

§ Visibility from observer

Set your observer location to see the next 7 days of passes ≥ 10°. The values pass through the URL so the page stays shareable.

No JS? Fill the form by hand. The geolocation button needs JavaScript.